OpenBCM V1.13 (Linux)

Packet Radio Mailbox

DB0FHN

[JN59NK Nuernberg]

 Login: GUEST





  
LU9DCE > KEP      27.12.19 18:33l 244 Lines 12053 Bytes #999 (0) @ WW
BID : 5995_LU9DCE
Read: DF7EAV DJ6UX GUEST
Subj: TLE 27 12
Path: DB0FHN<DB0BLO<DB0ERF<DB0RES<IR2UBX<IZ3LSV<IW0QNL<JH4XSY<JM1YTR<JE7YGF<
      GB7CIP<N7HPX<LU9DCE
Sent: 191227/1601Z 5995@LU9DCE.TOR.BA.ARG.SOAM LinBPQ6.0.19

            __    _  _  ___  ____   ___  ____    ____  ____  ____
           (  )  / )( \/ _ \(    \ / __)(  __)  (  _ \(  _ \/ ___)
           / (_/\) \/ (\__  )) D (( (__  ) _)    ) _ ( ) _ (\___ \
           \____/\____/(___/(____/ \___)(____)  (____/(____/(____/
               ESTACION DE PACKET RADIO - BUENOS AIRES (GF05OM)
                   BOLETINES INFORMATIVOS PROGRAMADOS (BIP)
                      LINUX - HELLOCODELINUX@GMAIL.COM
+----------------------------------------------------------------------------+
OSCAR 7
1  7530U 74089B   19361.48064414 -.00000054  00000-0 -53541-4 0  9997
2  7530 101.7747 327.3710 0012228 338.5781 134.1282 12.53641323 64558
OSCAR 11 (UoSAT 2)
1 14781U 84021B   19360.76802277  .00000085  00000-0  16541-4 0  9998
2 14781  97.5983  16.3096 0009710  57.8844 302.3312 14.83130495927080
OSCAR 19 (LUSAT)
1 20442U 90005G   19360.71520446 -.00000019  00000-0  94999-5 0  9990
2 20442  98.6717 302.5823 0010952 310.4901  49.5328 14.32941151563736
EYESAT A
1 22825U 93061C   19360.57803042 -.00000023  00000-0  90793-5 0  9995
2 22825  98.9171 353.7091 0008760 156.9067 203.2510 14.30074286369230
ITAMSAT
1 22826U 93061D   19361.51447751 -.00000016  00000-0  11571-4 0  9990
2 22826  98.9111 354.6357 0009513 143.7913 216.3914 14.30408921369578
RADIO ROSTO
1 23439U 94085A   19360.73258542 -.00000061  00000-0 -54080-3 0  9991
2 23439  64.8130 167.1848 0145998  75.8006 285.9087 11.27569446 29591
JAS 2
1 24278U 96046B   19360.40065361 -.00000032  00000-0  42516-6 0  9992
2 24278  98.5641 128.2121 0351262 105.6546 258.3638 13.53094858153595
TECHSAT 1B
1 25397U 98043D   19360.71270675 -.00000024  00000-0  88524-5 0  9993
2 25397  98.7104 298.7094 0001255 152.9197 207.2047 14.23676624115058
ISS (ZARYA)
1 25544U 98067A   19361.56538194  .00051159  00000-0  91344-3 0  9996
2 25544  51.6412 122.6482 0005091  80.8996 100.8566 15.49524156205253
PCSAT
1 26931U 01043C   19360.71510788 -.00000011  00000-0  27453-4 0  9993
2 26931  67.0503 230.7414 0006937 263.6448  96.3863 14.30562767952296
SAUDISAT 1C
1 27607U 02058C   19361.34660294 -.00000039  00000-0  15298-4 0  9993
2 27607  64.5535 183.6294 0068462 218.5453 141.0751 14.75597724915318
CUTE-1
1 27844U 03031E   19361.01460272  .00000038  00000-0  36664-4 0  9994
2 27844  98.6832   6.3606 0009614 191.7634 168.3320 14.22212874855481
CUBESAT XI 4
1 27848U 03031J   19360.99107908  .00000023  00000-0  30517-4 0  9993
2 27848  98.6905   6.8735 0009288 203.9271 156.1476 14.21803295855326
MOZHAYETS 4
1 27939U 03042A   19361.53115292  .00000011  00000-0  10577-4 0  9993
2 27939  98.0652 133.9304 0013174 175.0604 185.0727 14.66826502868668
CUBESAT XI 5
1 28895U 05043F   19361.33003910  .00000084  00000-0  25015-4 0  9992
2 28895  97.9842 137.8185 0018069 106.2140 254.1053 14.63724113755519
CUTE-1.7+APD II
1 32785U 08021C   19360.75363198  .00000180  00000-0  24971-4 0  9993
2 32785  97.5597 351.5642 0012894 356.1854   3.9263 14.88394461632104
DELFI C3
1 32789U 08021G   19361.16181621  .00000862  00000-0  60972-4 0  9990
2 32789  97.4416  44.8367 0012127 183.0430 177.0726 15.07346929635804
SEEDS
1 32791U 08021J   19360.71715147  .00000170  00000-0  22618-4 0  9996
2 32791  97.5326 357.6468 0012422 327.3311  32.7139 14.90939734632573
YUBELEINY
1 32953U 08025A   19361.51809540  .00000037  00000-0  19437-3 0  9996
2 32953  82.5053  25.4653 0020288  72.8827 287.4472 12.43093167526144
PRISM (HITOMI)
1 33493U 09002B   19361.06193225  .00000131  00000-0  17019-4 0  9998
2 33493  98.1310 289.3415 0014029 270.6838  89.2775 14.96850818593777
KKS-1 (KISEKI)
1 33499U 09002H   19360.84776393  .00000075  00000-0  19025-4 0  9998
2 33499  98.3328 205.5143 0008394 324.7822  35.2830 14.75491143587410
SWISSCUBE
1 35932U 09051B   19360.73912614  .00000100  00000-0  33531-4 0  9999
2 35932  98.5997 172.5129 0006688 304.1513  55.9050 14.56343106544586
BEESAT
1 35933U 09051C   19360.73086448  .00000077  00000-0  28396-4 0  9993
2 35933  98.6009 174.3345 0005057 321.3073  38.7761 14.56424970544692
ITUPSAT 1
1 35935U 09051E   19361.03662991  .00000065  00000-0  26147-4 0  9991
2 35935  98.6118 174.8711 0007310 315.6021  44.4588 14.55577556544475
XIWANG-1 (HOPE-1)
1 36122U 09072B   19361.19130508 -.00000042  00000-0 -24958-6 0  9991
2 36122 100.0809 354.6232 0006920 264.1873  95.8452 13.16352550482072
TISAT 1
1 36799U 10035E   19361.39479355  .00000436  00000-0  49918-4 0  9996
2 36799  98.1755 160.2117 0012463 171.8653 188.2768 14.91234612513334
JUGNU
1 37839U 11058B   19361.10308017  .00000305  00000-0  20508-4 0  9992
2 37839  19.9607 254.0259 0018819 276.9713 229.8650 14.12667728424357
SRMSAT
1 37841U 11058D   19361.28551396  .00000311  00000-0  25596-4 0  9993
2 37841  19.9729 313.6605 0012036 140.9751   4.9631 14.10646614423774
M-CUBED/EXP-1 PRIME
1 37855U 11061F   19360.72061726  .00000768  00000-0  46160-4 0  9999
2 37855 101.7261 354.5264 0172109 230.3771 128.2143 15.05903129445526
HORYU 2
1 38340U 12025D   19361.11814370  .00000128  00000-0  26591-4 0  9991
2 38340  98.3063  45.2157 0010605 229.8399 130.1881 14.75791620409396
STRAND 1
1 39090U 13009E   19360.82376368  .00000020  00000-0  22197-4 0  9993
2 39090  98.4682 203.4047 0010271  81.9019 278.3331 14.35111410357800
SOMP
1 39134U 13015E   19360.77627549  .00001166  00000-0  61430-4 0  9998
2 39134  64.8628 121.1671 0038333 271.8368  87.8370 15.20605542369641
BEESAT 3
1 39135U 13015F   19360.71285287  .00000873  00000-0  52023-4 0  9994
2 39135  64.8653 142.3871 0043689 274.3991  85.2144 15.17812034369235
BEESAT 2
1 39136U 13015G   19361.48201266  .00000862  00000-0  52719-4 0  9995
2 39136  64.8700 144.3043 0030951 281.2077  78.5571 15.17237825369263
CUBEBUG 1
1 39153U 13018D   19361.55874934  .00000158  00000-0  27485-4 0  9993
2 39153  97.9818  98.6550 0015675 298.7011  61.2625 14.80644211360204
ZACUBE
1 39417U 13066B   19361.02517897  .00000169  00000-0  27392-4 0  9992
2 39417  97.5609   3.7581 0060118 125.8138 234.8683 14.81197528329363
TRITON 1
1 39427U 13066M   19361.13995668  .00000099  00000-0  24127-4 0  9996
2 39427  97.7018 326.9545 0112300 272.7067  86.1289 14.67923597326425
GOMX 1
1 39430U 13066Q   19361.47537151  .00000203  00000-0  45672-4 0  9991
2 39430  97.7719 305.6429 0151601  10.1081 350.3101 14.59330245324575
HUMSAT D
1 39433U 13066T   19361.52309947  .00000492  00000-0  53005-4 0  9999
2 39433  97.5303  40.9424 0031151  23.2138 337.0481 14.92336350331687
CUBEBUG 2
1 39440U 13066AA  19360.73560293  .00000135  00000-0  25761-4 0  9994
2 39440  97.6148 348.0223 0080030 183.3653 176.7029 14.75934951328158
FUNCUBE 1
1 39444U 13066AE  19361.05418361  .00000222  00000-0  33458-4 0  9991
2 39444  97.5571   5.9016 0059318 118.8701 241.8483 14.82033712328276
UWE-3
1 39446U 13066AG  19360.68335104  .00000158  00000-0  27490-4 0  9991
2 39446  97.5873 355.1491 0070558 155.7314 204.7248 14.78469407327487
SPROUT
1 39770U 14029E   19361.35403199  .00000556  00000-0  67312-4 0  9995
2 39770  97.8919 103.5123 0009064 169.6389 190.5006 14.87553935303329
UNISAT 6
1 40012U 14033C   19361.17473872  .00000123  00000-0  25738-4 0  9992
2 40012  97.7301 219.2555 0057777 198.6692 161.2398 14.74048772296897
DUCHIFAT 1
1 40021U 14033M   19361.51931999  .00000213  00000-0  27529-4 0  9999
2 40021  97.9335 286.8147 0013789 133.1381 227.0993 14.90771829300125
QB50P1
1 40025U 14033R   19360.75255399  .00000170  00000-0  24056-4 0  9995
2 40025  97.9108 280.1416 0013100 145.4846 214.7224 14.89043338299753
CHUBUSAT 1
1 40300U 14070C   19361.46752295  .00000406  00000-0  20509-4 0  9999
2 40300  97.3103  70.6224 0021325 101.0235 269.8370 15.22301358285198
NUDT-PHONESAT
1 40900U 15049B   19361.49490831  .00001698  00000-0  74175-4 0  9992
2 40900  97.4345   8.9981 0011381 227.3432 285.9447 15.23437394236853
ZDPS 2A
1 40901U 15049C   19361.46436573  .00000645  00000-0  35049-4 0  9991
2 40901  97.4610   4.5587 0011889 254.9167 262.9361 15.17996696236327
ZDPS 2B
1 40902U 15049D   19361.50077185  .00000783  00000-0  41901-4 0  9994
2 40902  97.4572   1.9442 0011860 251.7771 228.3777 15.17908497236308
XW-2A
1 40903U 15049E   19361.46152409  .00001397  00000-0  34195-4 0  9992
2 40903  97.3145  45.0998 0013671 163.6645 309.5979 15.42459930239807
KAITUO 1A
1 40904U 15049F   19361.48689593  .00000472  00000-0  28376-4 0  9991
2 40904  97.4716   0.2850 0012959 263.6817 213.9475 15.15548667236041
OBJECT G
1 40905U 15049G   19361.44861672  .00000157  00000-0  12122-4 0  9990
2 40905  97.4780 357.6059 0014031 258.8611 258.9800 15.14423208235899
XW-2C
1 40906U 15049H   19361.45490436  .00000388  00000-0  23726-4 0  9996
2 40906  97.4719   0.4311 0013225 253.0799 264.2699 15.15872883236046
XW-2D
1 40907U 15049J   19361.47297953  .00000789  00000-0  44380-4 0  9992
2 40907  97.4706   0.1357 0012537 250.1688 262.7233 15.16082882236062
LILACSAT 2
1 40908U 15049K   19361.49213668  .00000370  00000-0  24014-4 0  9994
2 40908  97.4848 358.7455 0014236 259.9123 269.8966 15.13922042235822
XW-2F
1 40910U 15049M   19361.43757999  .00000671  00000-0  36700-4 0  9990
2 40910  97.4648   2.4022 0013121 240.9771 224.5394 15.17614496236095
XW-2B
1 40911U 15049N   19361.44969505  .00000372  00000-0  22834-4 0  9991
2 40911  97.4727   0.7938 0012422 251.1913 267.6976 15.16008100235952
KAITUO 1B
1 40912U 15049P   19361.43875230  .00000783  00000-0  39559-4 0  9990
2 40912  97.4495   6.3445 0013651 218.7683 248.7728 15.19966404236430
TIANWANG 1C (TW-1C)
1 40926U 15051B   19361.42623318  .00011880  00000-0  14835-3 0  9994
2 40926  97.1122  47.5797 0007787  30.8147  94.6716 15.59969588240000
